Weather in Fargo

United States     46°52′36″N   96°48′40″W
temp.,
°C
wind,
m/s
gust,
m/s
humid.,
%
clouds,
%
prec.,
mm/h
press.,
hPa
HPBL,
m
18 may, tue
tue1801:00+17sse614560 0.0 1016400
04:00+15sse410730 0.0 1017227
07:00+15sse410800 0.0 1016308
10:00+20s7106327 0.0 10161148
13:00+23sse81054100 0.0 10141692
16:00+23s8105479 0.2 10121696
19:00+22s695868 0.2 10111326
22:00+20s61169100 0.1 1011663
19 may, wed
wed1901:00+17sse6128142 0.2 1011485
04:00+15sse5129311 0.0 1011428
07:00+15sse6119234 0.0 1011378
10:00+21s786728 0.0 1011795
13:00+26s7850100 0.0 10101596
16:00+27s7744100 0.0 10092168
19:00+24sse7957100 0.0 1009825
22:00+20s51379100 0.9 1011382
20 may, thu
thu2001:00+18sse51183100 0.9 1011409
04:00+17se2597100 5.8 1010213
07:00+17nne2496100 10.3 1010242
10:00+18n3589100 1.1 1011368
13:00+21ne5567100 1.2 10121137
16:00+22ne4465100 0.1 10131152
19:00+20nne5876100 0.1 1014671
22:00+16ne51090100 1.4 1016426
21 may, fri
fri2101:00+16ene5994100 2.2 1016315
04:00+17se389295 0.0 1016309
07:00+16se38935 0.0 1016312
10:00+21sse5777100 0.0 1017821
13:00+21sse5775100 0.1 1017812
16:00+24sse576596 0.0 10171270
19:00+23se577042 0.0 1016810
22:00+20ese51283100 0.0 1017291
22 may, sat
sat2201:00+21se6128099 0.2 1016406
04:00+19sse3894100 1.6 1016268
07:00+20s5109599 1.8 1015400
10:00+23wsw458098 0.7 1016772
13:00+24nnw5573100 0.9 1016575
16:00+20n6774100 0.4 1016522
19:00+16n6986100 0.9 1018412
22:00+15n588688 0.1 1019448